Home   Weather   Nanaimo   Past weeks

Flag for Canada Past Weather in Nanaimo, British Columbia, Canada — Yesterday and Last 2 Weeks

Now
38 °F

Chilly.


Feels Like: 29 °F
Forecast: 31 / 42 °F
Wind: 17 mph from Southeast

Location: Entrance Island

Current Time: Feb 26, 2017 at 6:35:20 am

Latest Report: Feb 26, 2017 at 6:00 am


Visibility: N/A

Pressure: 29.73 "Hg

Humidity: 88%

Dew Point: 35 °F

Location of NanaimoLocation

Past Weather in Nanaimo — Graph

°F

Nanaimo Temperature Yesterday

Maximum temperature yesterday: 40 °F (at 6:00 pm)
Minimum temperature yesterday: 36 °F (at 8:00 am)
Average temperature yesterday: 38 °F

High & Low Weather Summary for the Past Weeks

 TemperatureHumidityPressure
High53 °F (Feb 16, 4:00 am)97% (Feb 15, 3:00 pm)30.52 "Hg (Feb 15, 3:00 pm)
Low35 °F (Feb 24, 9:00 am)56% (Feb 21, 6:00 pm)29.20 "Hg (Feb 16, 2:00 am)
Average43 °F83%29.91 "Hg
* Reported Feb 11 5:00 am — Feb 26 5:00 am, Nanaimo, Weather by CustomWeather, © 2017

Note: Actual official high and low records may vary slightly from our data, if they occured in-between our weather recording intervals... More about our weather records

Advertising

Nanaimo Weather History for the Previous 24 Hours

Scroll right to see more
 ConditionsComfort  
Time TempWeatherWind HumidityBarometerVisibility
5:00 am
Sun, Feb 26
37 °FChilly.18 mph90%29.73 "HgN/A
4:00 am37 °FChilly.21 mph91%29.74 "HgN/A
3:00 am37 °FChilly.22 mph91%29.75 "HgN/A
2:00 am37 °FChilly.24 mph93%29.76 "HgN/A
1:00 am38 °FChilly.22 mph93%29.78 "HgN/A
12:00 am37 °FChilly.15 mph93%29.82 "HgN/A
11:00 pm
Sat, Feb 25
38 °FChilly.7 mph87%29.85 "HgN/A
10:00 pm38 °FChilly.3 mph86%29.88 "HgN/A
9:00 pm38 °FChilly.2 mph84%29.90 "HgN/A
8:00 pm38 °FChilly.5 mph87%29.93 "HgN/A
7:00 pm39 °FChilly.2 mph78%29.96 "HgN/A
6:00 pm40 °FQuite cool.5 mph79%29.98 "HgN/A
5:00 pm40 °FChilly.8 mph79%30.01 "HgN/A
4:00 pm40 °FChilly.7 mph77%30.06 "HgN/A
3:00 pm40 °FChilly.9 mph72%30.08 "HgN/A
2:00 pm40 °FChilly.8 mph73%30.11 "HgN/A
1:00 pm39 °FChilly.5 mph68%30.14 "HgN/A
12:00 pm38 °FChilly.2 mph71%30.19 "HgN/A
11:00 am39 °FChilly.1 mph70%30.20 "HgN/A
10:00 am38 °FChilly.5 mph74%30.21 "HgN/A
9:00 am37 °FChilly.6 mph78%30.22 "HgN/A
8:00 am36 °FChilly.8 mph79%30.24 "HgN/A
7:00 am37 °FChilly.8 mph75%30.24 "HgN/A
6:00 am37 °FChilly.9 mph77%30.24 "HgN/A
Weather by CustomWeather, © 2017

See weather overviewHow to use our weather pages

LIVE ANNULAR SOLAR ECLIPSE – Watch the eclipse as it happens